www.pogodaiklimat.ru

Погода и климат >> Архив погоды >> Россия >> Свердловская область >> Екатеринбург


АРХИВ ПОГОДЫ в Екатеринбурге

Время (UTC), дата Ветер
(напр.,м/с)
 
Видим.   Явления Облачность Т
(С)
Тd
(С)
f
(%)
Тe
(С)
Тes
(С)
Комфортность P
(гПа)
Po
(гПа)
Тmin
(С)
Tmax
(С)
R
(мм)
R24
(мм)
S
(см)
15 11.08 СЗ 3 50 км 3/0
[Ci fib]
+17.9 +2.7 36 +18 +18 по сезону 1012.9 980.3 +20.2
18 11.08 Ю 1 10 км 4/0
[Ci fib]
+13.5 +6.1 61 +14 +14 по сезону 1013.0 979.9
21 11.08 Ю 1 10 км 4/0
[Ci fib]
+11.1 +6.9 75 +11 +11 прохладно 1012.1 978.7
00 12.08 Ю 1 10 км 9/6 600 м
[Sc Ac trans Cc]
+11.6 +8.3 80 +11 +11 по сезону 1010.5 977.3
03 12.08 Ю 1 20 км 10/3 600 м
[Sc Ac trans Cc]
+14.5 +10.2 75 +15 +16 по сезону 1008.3 975.5 +10.7
06 12.08 ЮЗ 3 20 км слабый ливневой дождь 10/10 600 м
[Cb cap]
+15.0 +12.5 85 +14 +14 прохладно 1007.1 974.4
09 12.08 ЮЗ 3 10 км слабый ливневой дождь 10/10 600 м
[Cb cap]
+15.1 +12.5 84 +14 +14 холодно 1006.3 973.7
12 12.08 З 1 50 км {ливн. осадки} 9/9 600 м
[Cb calv]
+17.2 +13.0 76 +18 +19 по сезону 1005.7 973.2
15 12.08 З 2
{10}
20 км 9/4 600 м
[Cb calv Cs]
+15.3 +11.7 79 +15 +15 прохладно 1005.8 973.2 +19.6 2
18 12.08 СЗ 2 10 км 9/6 600 м
[Sc Cs]
+14.5 +12.6 88 +14 +14 по сезону 1006.8 974.0
21 12.08 СЗ 2 10 км 9/9 600 м
[Sc]
+14.5 +12.4 87 +14 +14 по сезону 1007.0 974.2
00 13.08 С 2 4000 м слабый ливневой дождь 10/10 600 м
[Cb cap]
+13.4 +11.8 90 +13 +13 по сезону 1008.1 975.2
03 13.08 С 3 50 км {ливн. осадки} 10/10 600 м
[Cb cap]
+11.4 +8.2 81 +10 +10 прохладно 1010.2 976.9 +11.3
06 13.08 СЗ 3 50 км {ливн. осадки} 10/10 600 м
[Cb cap]
+11.2 +7.6 78 +9 +9 очень
холодно
1012.1 978.7 +10.7
09 13.08 СЗ 3 10 км слабый ливневой дождь 10/10 600 м
[Cb cap]
+10.8 +7.9 82 +9 +9 очень
холодно
1014.2 980.7
12 13.08 С 3 10 км слабый дождь {ливн. осадки} 10/10 600 м
[Sc]
+11.5 +9.1 85 +10 +10 очень
холодно
1014.6 981.2
15 13.08 СЗ 1 4000 м слабая морось {дождь} 10/10 300 м
[St]
+10.9 +9.2 89 +11 +11 холодно 1016.6 983.1 +11.7
18 13.08 З 1 10 км слабая морось {дождь} 10/10 300 м
[St]
+10.5 +8.9 90 +10 +10 холодно 1018.1 984.5
21 13.08 З 1 10 км слабая морось 10/10 300 м
[St]
+10.1 +8.6 90 +10 +10 прохладно 1018.5 984.8
00 14.08 СЗ 1 10 км {морось} 10/10 300 м
[St]
+10.0 +8.6 91 +9 +9 прохладно 1019.8 986.1
03 14.08 СЗ 1 10 км 10/10 300 м
[St]
+10.3 +8.7 90 +10 +10 прохладно 1021.1 987.4 +9.8
06 14.08 С 1 20 км 10/10 300 м
[St]
+11.9 +9.4 85 +12 +12 холодно 1021.8 988.2
09 14.08 В 1 10 км 10/10 600 м
[Sc]
+15.9 +10.5 70 +17 +17 по сезону 1021.9 988.8
12 14.08 В 1 20 км 10/0
[Ac trans Ci fib]
+20.4 +11.5 57 +23 +27 комфорт 1021.4 988.9
15 14.08 В 1 50 км 10/0
[Ci fib]
+18.3 +11.3 64 +20 +20 тепло 1022.2 989.4 +20.5
18 14.08 штиль 0 10 км 8/0
[Ci fib]
+15.2 +11.7 80 +15 +15 по сезону 1022.9 989.7
21 14.08 штиль 0 10 км 10/0
[Cs]
+13.7 +11.2 85 +13 +13 по сезону 1023.1 989.7
00 15.08 штиль 0 4000 м дымка 10/0
[Cs]
+11.4 +10.0 91 +11 +11 по сезону 1023.6 989.9
03 15.08 штиль 0 4000 м дымка 4/0
[Ci fib]
+14.3 +10.7 79 +14 +17 по сезону 1023.5 990.1 +10.5
06 15.08 Ю 3 10 км ясно +22.3 +9.9 45 +24 +32 комфорт 1022.3 989.9
09 15.08 Ю 3 50 км 4/3 600 м
[Sc Ci fib]
+25.3 +8.3 34 +26 +32 жарко 1021.1 989.0
12 15.08 ЮЗ 2 50 км 5/3 600 м
[Cu Sc Ci fib]
+25.1 +8.6 35 +26 +29 жарко 1020.4 988.3
15 15.08 Ю 2 50 км 6/3 600 м
[Sc Ci fib]
+22.7 +9.9 44 +24 +24 комфорт 1020.1 987.8 +26.4
18 15.08 ЮЗ 1 10 км 3/0
[Ci fib]
+19.0 +11.0 60 +21 +21 комфорт 1020.9 988.2
21 15.08 штиль 0 10 км ясно +16.1 +11.8 76 +16 +16 тепло 1021.0 988.0
00 16.08 штиль 0 10 км 5/4 600 м
[Sc Ci fib]
+14.7 +12.0 84 +14 +14 тепло 1021.3 988.0
03 16.08 З 1 20 км 9/1 600 м
[Sc Cs]
+17.0 +13.0 77 +18 +20 тепло 1021.6 988.6 +14.3
06 16.08 СЗ 4 50 км 10/6 600 м
[Cb cap Cs]
+20.5 +12.0 58 +23 +25 комфорт 1021.6 989.1
09 16.08 СЗ 4
{10}
50 км в посл. час ливневой дождь 10/9 600 м
[Cb cap Cs]
+19.7 +12.8 64 +21 +22 комфорт 1022.3 989.6
12 16.08 С 3 50 км в посл. час ливневой дождь 10/8 600 м
[Cb cap Cs]
+19.8 +12.3 62 +22 +22 комфорт 1022.8 990.1
15 16.08 СЗ 2 50 км 3/3 600 м
[Cu Sc Ci fib]
+19.7 +11.7 60 +22 +22 комфорт 1023.6 990.8 +23.0
18 16.08 штиль 0 10 км ясно +16.0 +11.6 75 +16 +16 тепло 1025.0 991.8
21 16.08 З 1 10 км ясно +14.3 +12.1 87 +15 +15 тепло 1025.7 992.3
00 17.08 СЗ 2 10 км 8/8 600 м
[Sc]
+13.3 +10.5 83 +13 +13 по сезону 1026.2 992.7
03 17.08 СЗ 2 50 км 10/3 1000 м
[Sc Ci]
+14.3 +8.3 67 +14 +15 по сезону 1026.4 992.9 +13.0
06 17.08 СЗ 3 50 км 10/3 600 м
[Sc Cc]
+18.7 +6.8 46 +19 +24 тепло 1026.2 993.2
09 17.08 СЗ 4 50 км 9/3 1000 м
[Cu med, cong Ac trans Cc]
+20.3 +3.6 33 +21 +24 комфорт 1025.8 993.0
12 17.08 СЗ 4 50 км 5/1 1000 м
[Cu hum Cc]
+21.0 +4.6 34 +22 +24 комфорт 1025.1 992.4
15 17.08 СЗ 3 50 км 4/3 600 м
[Sc Cc]
+18.9 +6.6 45 +20 +20 тепло 1025.5 992.6 +21.8
18 17.08 СВ 1 10 км 4/0
[Ci fib]
+16.3 +7.7 57 +17 +17 тепло 1026.8 993.5
21 17.08 штиль 0 10 км ясно +13.3 +8.3 72 +13 +13 по сезону 1027.6 994.2
00 18.08 СЗ 1 10 км ясно +11.0 +8.6 85 +11 +11 по сезону 1028.5 994.6
03 18.08 СЗ 1 50 км 3/0
[Ci fib]
+12.7 +8.2 74 +13 +15 по сезону 1029.1 995.4 +10.9
06 18.08 СЗ 1 50 км 8/3 600 м
[Cu Sc Ci fib]
+17.5 +7.0 50 +19 +25 тепло 1028.6 995.4
09 18.08 С 1 50 км 8/8 600 м
[Cu hum Ci fib]
+18.7 +5.9 43 +20 +23 тепло 1027.8 994.8
12 18.08 З 1 50 км 5/3 600 м
[Cu med, cong Ci fib]
+20.7 +4.2 34 +22 +26 комфорт 1026.2 993.4

 

Местоположение метеостанции Екатеринбург (Свердловская область, Россия): широта 56.83 долгота 60.63 высота над уровнем моря 281 м.

В архиве по умолчанию представлена погода в Екатеринбурге за последнюю неделю. Архивные данные за месяц целиком и за предыдущие месяцы, начиная с января 2011 года, Вы можете получить, выбрав интересующий диапазон дат из раскрывающегося списка и нажав кнопку "Ввод!".

Внимание! Время в таблицах - всемирное. Для получения местного времени необходимо прибавить поправку, которая в Екатеринбурге равна 5 ч.

Смотрите также архив погоды в соседних городах и на ближайших метеорологических станциях:

Погода в Верхнем Дуброво (Свердловская область, Россия) (29 км)
Погода в Сысерти (Свердловская область, Россия) (38 км)
Погода в Ревде (Свердловская область, Россия) (40 км)
Погода в Невьянске (Свердловская область, Россия) (78 км)
Погода в Верхнем Уфалее (Челябинская область, Россия) (86 км)
Погода в Каменск-Уральском (Свердловская область, Россия) (88 км)
Погода в Бисерти (Свердловская область, Россия) (95 км)
Погода в Артемовском (Свердловская область, Россия) (98 км)
Погода в Михайловске (Свердловская область, Россия) (105 км)
Погода в Нязепетровске (Челябинская область, Россия) (108 км)

Пояснения к столбцам:

Ветер - указаны скорость ветра в м/с - средняя за 10 мин, порывы в срок и между сроками (в фигурных скобках) и направление, откуда дует ветер: С - северный, СВ - северо-восточный, В - восточный, ЮВ - юго-восточный, Ю - южный, ЮЗ - юго-западный, З - западный, СЗ - северо-западный.
Видимость - горизонтальная дальность видимости в метрах или километрах. При видимости от 1 до 10 км при отсутствии осадков обычно наблюдается дымка, при ухудшении видимости до 1 км и менее - туман. В сухую погоду видимость может ухудшаться дымом, пылью или мглою.
Явления - указаны атмосферные явления, наблюдавшиеся в срок или в последний час перед сроком; фигурными скобками обозначены явления, наблюдавшиеся между сроками (за 1-3 часа до срока); квадратными скобками обозначены град или гололедные отложения с указанием их диаметра в мм.
Облачность - указаны через наклонную черту общая и нижняя облачность в баллах и высота нижней границы облаков в метрах; квадратными скобками обозначены формы облаков: Ci - перистые, Cs - перисто-слоистые, Cc - перисто-кучевые, Ac - высококучевые, As - высокослоистые, Sc - слоисто-кучевые, Ns - слоисто-дождевые, Cu - кучевые, Cb - кучево-дождевые. Подробнее классификацию облаков см. в Атласе облаков (PDF).
T - Температура воздуха - температура, измеренная на высоте 2 м над землей.
Td - Температура точки росы - температура, при понижении до которой содержащийся в воздухе водяной пар достигнет насыщения.
f - Относительная влажность воздуха - влажноcть воздуха, измеренная на высоте 2 м над землей.
Te - Эффективная температура - температура, которую ощущает одетый по сезону человек в тени. Характеристика душности погоды. При расчете учитывается влияние влажности воздуха и скорости ветра на теплоощущения человека.
Tes - Эффективная температура на солнце - температура, которую ощущает человек, с поправкой на солнечный нагрев. Характеристика знойности погоды. Зависит от высоты солнца над горизонтом, облачности и скорости ветра. Ночью, в пасмурную погоду, а также при ветре 12 м/с и более поправка равна нулю.
P - Атмосферное давление - приведенное к уровню моря атмосферное давление.
Po - Атмосферное давление - измеренное на уровне метеостанции атмосферное давление.
Tmin - Минимальная температура - минимум температуры воздуха на высоте 2 м над землей.
Tmax - Максимальная температура - максимум температуры воздуха на высоте 2 м над землей.
R - Количество осадков - Количество выпавших осадков за период времени, мм. При наведении курсора мыши на число - период времени, за который выпало указанное количество осадков.
R24 - Количество осадков - Количество выпавших осадков за 24 часа, мм.
S - Снежный покров - Высота снежного покрова, см. При наведении курсора мыши на число - состояние снежного покрова и степень покрытия местности в баллах.